| time (UTC) | temp F | wind direction | speed MPH | gust MPH | rain 1hr in | rain 24hr in | rain mn in | humidity % | barometer mb |
| 20260904131522 | 74 | 225 | 5.0 | 9.0 | 0.00 | 0.00 | 0.00 | 94 | 1010.5 |
| 20260904131022 | 74 | 171 | 4.0 | 9.0 | 0.00 | 0.00 | 0.00 | 95 | 1010.3 |
| 20260904130521 | 74 | 182 | 6.0 | 9.0 | 0.00 | 0.00 | 0.00 | 95 | 1010.2 |
| 20260904130021 | 74 | 179 | 5.0 | 8.0 | 0.00 | 0.00 | 0.00 | 95 | 1010.1 |
| 20260904125521 | 74 | 195 | 4.0 | 9.0 | 0.00 | 0.00 | 0.00 | 95 | 1010.1 |
| 20260904125021 | 74 | 187 | 5.0 | 12.0 | 0.00 | 0.00 | 0.00 | 95 | 1010.0 |
| 20260904124522 | 74 | 200 | 7.0 | 12.0 | 0.00 | 0.00 | 0.00 | 95 | 1009.9 |
| 20260904124019 | 74 | 172 | 6.0 | 10.0 | 0.00 | 0.00 | 0.00 | 95 | 1009.9 |
| 20260904123523 | 73 | 179 | 6.0 | 10.0 | 0.00 | 0.00 | 0.00 | 95 | 1009.8 |
| 20260904123019 | 74 | 184 | 4.0 | 10.0 | 0.00 | 0.00 | 0.00 | 95 | 1009.7 |
| 20260904122520 | 74 | 165 | 5.0 | 11.0 | 0.00 | 0.00 | 0.00 | 95 | 1009.6 |
| 20260904122022 | 74 | 170 | 6.0 | 11.0 | 0.00 | 0.00 | 0.00 | 94 | 1009.4 |
| 20260904121518 | 74 | 175 | 5.0 | 9.0 | 0.00 | 0.00 | 0.00 | 94 | 1009.4 |
| 20260904121018 | 74 | 171 | 3.0 | 8.0 | 0.00 | 0.00 | 0.00 | 94 | 1009.3 |
| 20260904120515 | 74 | 199 | 4.0 | 8.0 | 0.00 | 0.00 | 0.00 | 94 | 1009.2 |
| 20260904120015 | 74 | 180 | 4.0 | 8.0 | 0.00 | 0.00 | 0.00 | 94 | 1009.3 |
| 20260904115514 | 74 | 208 | 4.0 | 10.0 | 0.00 | 0.00 | 0.00 | 94 | 1009.3 |
| 20260904115014 | 74 | 189 | 6.0 | 10.0 | 0.00 | 0.00 | 0.00 | 93 | 1009.2 |
| 20260904114516 | 74 | 194 | 4.0 | 12.0 | 0.00 | 0.00 | 0.00 | 93 | 1009.3 |
| 20260904114013 | 74 | 197 | 7.0 | 12.0 | 0.00 | 0.00 | 0.00 | 93 | 1009.2 |
| 20260904113512 | 74 | 184 | 5.0 | 9.0 | 0.00 | 0.00 | 0.00 | 93 | 1009.3 |
| 20260904113012 | 74 | 167 | 5.0 | 9.0 | 0.00 | 0.00 | 0.00 | 93 | 1009.3 |
| 20260904112512 | 74 | 187 | 4.0 | 9.0 | 0.00 | 0.00 | 0.00 | 93 | 1009.3 |
| 20260904112012 | 74 | 170 | 5.0 | 10.0 | 0.00 | 0.00 | 0.00 | 93 | 1009.3 |
| 20260904111511 | 74 | 183 | 6.0 | 10.0 | 0.00 | 0.00 | 0.00 | 92 | 1009.3 |
| 20260904111011 | 74 | 183 | 5.0 | 8.0 | 0.00 | 0.00 | 0.00 | 92 | 1009.3 |
| 20260904110512 | 74 | 204 | 5.0 | 8.0 | 0.00 | 0.00 | 0.00 | 92 | 1009.4 |
| 20260904110011 | 74 | 186 | 4.0 | 9.0 | 0.00 | 0.00 | 0.00 | 92 | 1009.4 |
| 20260904105511 | 74 | 213 | 5.0 | 10.0 | 0.00 | 0.00 | 0.00 | 92 | 1009.4 |
| 20260904105010 | 74 | 219 | 5.0 | 12.0 | 0.00 | 0.00 | 0.00 | 92 | 1009.4 |
| 20260904104510 | 74 | 222 | 5.0 | 12.0 | 0.00 | 0.00 | 0.00 | 92 | 1009.4 |
| 20260904104009 | 74 | 184 | 4.0 | 9.0 | 0.00 | 0.00 | 0.00 | 92 | 1009.4 |
| 20260904103509 | 74 | 193 | 7.0 | 9.0 | 0.00 | 0.00 | 0.00 | 92 | 1009.4 |
| 20260904103009 | 74 | 182 | 6.0 | 9.0 | 0.00 | 0.00 | 0.00 | 92 | 1009.5 |
| 20260904102510 | 74 | 167 | 5.0 | 14.0 | 0.00 | 0.00 | 0.00 | 92 | 1009.4 |
| 20260904102010 | 74 | 165 | 6.0 | 14.0 | 0.00 | 0.00 | 0.00 | 92 | 1009.3 |
| 20260904101510 | 74 | 209 | 5.0 | 11.0 | 0.00 | 0.00 | 0.00 | 92 | 1009.2 |
| 20260904101009 | 74 | 182 | 7.0 | 11.0 | 0.00 | 0.00 | 0.00 | 92 | 1009.3 |
| 20260904100508 | 75 | 186 | 7.0 | 11.0 | 0.00 | 0.00 | 0.00 | 92 | 1009.4 |
| 20260904100008 | 75 | 180 | 7.0 | 14.0 | 0.00 | 0.00 | 0.00 | 92 | 1009.3 |
| 20260904095508 | 74 | 159 | 8.0 | 15.0 | 0.00 | 0.00 | 0.00 | 92 | 1009.4 |
| 20260904095007 | 74 | 180 | 8.0 | 15.0 | 0.00 | 0.00 | 0.00 | 92 | 1009.3 |
| 20260904094508 | 75 | 211 | 8.0 | 15.0 | 0.00 | 0.00 | 0.00 | 91 | 1009.3 |
| 20260904094007 | 75 | 171 | 9.0 | 16.0 | 0.00 | 0.00 | 0.00 | 91 | 1009.4 |
| 20260904093509 | 75 | 190 | 8.0 | 15.0 | 0.00 | 0.00 | 0.00 | 91 | 1009.4 |
| 20260904093006 | 75 | 182 | 6.0 | 14.0 | 0.00 | 0.00 | 0.00 | 91 | 1009.3 |
| 20260904092505 | 75 | 165 | 9.0 | 14.0 | 0.00 | 0.00 | 0.00 | 91 | 1009.4 |
| 20260904092005 | 75 | 176 | 8.0 | 14.0 | 0.00 | 0.00 | 0.00 | 91 | 1009.3 |
| 20260904091516 | 75 | 177 | 6.0 | 16.0 | 0.00 | 0.00 | 0.00 | 91 | 1009.2 |
| 20260904091005 | 75 | 163 | 10.0 | 16.0 | 0.00 | 0.00 | 0.00 | 91 | 1009.3 |
| 20260904090504 | 75 | 196 | 8.0 | 18.0 | 0.00 | 0.00 | 0.00 | 91 | 1009.4 |
| 20260904090009 | 75 | 180 | 8.0 | 18.0 | 0.00 | 0.00 | 0.00 | 91 | 1009.3 |
| 20260904085503 | 75 | 191 | 7.0 | 16.0 | 0.00 | 0.00 | 0.00 | 90 | 1009.5 |
| 20260904085004 | 75 | 166 | 7.0 | 16.0 | 0.00 | 0.00 | 0.00 | 90 | 1009.4 |
| 20260904084501 | 75 | 186 | 7.0 | 13.0 | 0.00 | 0.00 | 0.00 | 91 | 1009.4 |
| 20260904084000 | 75 | 206 | 6.0 | 13.0 | 0.00 | 0.00 | 0.00 | 91 | 1009.6 |
| 20260904083559 | 75 | 172 | 7.0 | 12.0 | 0.00 | 0.00 | 0.00 | 91 | 1009.6 |
| 20260904083102 | 75 | 181 | 4.0 | 16.0 | 0.00 | 0.00 | 0.00 | 91 | 1009.7 |
| 20260904082559 | 75 | 181 | 8.0 | 16.0 | 0.00 | 0.00 | 0.00 | 91 | 1009.7 |
| 20260904082059 | 75 | 193 | 8.0 | 14.0 | 0.00 | 0.00 | 0.00 | 91 | 1009.7 |
| 20260904081559 | 75 | 175 | 7.0 | 13.0 | 0.00 | 0.00 | 0.00 | 91 | 1009.7 |
| 20260904081056 | 74 | 200 | 6.0 | 13.0 | 0.00 | 0.00 | 0.00 | 91 | 1009.6 |
| 20260904080556 | 74 | 172 | 6.0 | 9.0 | 0.00 | 0.00 | 0.00 | 91 | 1009.5 |
| 20260904080055 | 74 | 170 | 4.0 | 11.0 | 0.00 | 0.00 | 0.00 | 90 | 1009.5 |
| 20260904075555 | 74 | 156 | 7.0 | 13.0 | 0.00 | 0.00 | 0.00 | 90 | 1009.6 |
| 20260904075055 | 74 | 182 | 5.0 | 14.0 | 0.00 | 0.00 | 0.00 | 90 | 1009.7 |
| 20260904074602 | 75 | 163 | 5.0 | 14.0 | 0.00 | 0.00 | 0.00 | 89 | 1009.6 |
| 20260904074052 | 75 | 137 | 6.0 | 11.0 | 0.00 | 0.00 | 0.00 | 89 | 1009.7 |
| 20260904073552 | 75 | 155 | 5.0 | 11.0 | 0.00 | 0.00 | 0.00 | 88 | 1009.7 |
| 20260904073052 | 75 | 159 | 5.0 | 12.0 | 0.00 | 0.00 | 0.00 | 88 | 1009.7 |
| 20260904072552 | 75 | 185 | 5.0 | 13.0 | 0.00 | 0.00 | 0.00 | 88 | 1009.9 |
| 20260904072051 | 75 | 160 | 9.0 | 14.0 | 0.00 | 0.00 | 0.00 | 88 | 1009.9 |
| 20260904071618 | 75 | 159 | 7.0 | 14.0 | 0.00 | 0.00 | 0.00 | 87 | 1009.9 |
| 20260904071049 | 75 | 178 | 9.0 | 16.0 | 0.00 | 0.00 | 0.00 | 87 | 1009.9 |
| 20260904070549 | 75 | 187 | 8.0 | 18.0 | 0.00 | 0.00 | 0.00 | 87 | 1010.0 |
| 20260904070058 | 75 | 193 | 9.0 | 18.0 | 0.00 | 0.00 | 0.00 | 86 | 1010.0 |
| 20260904065547 | 76 | 152 | 10.0 | 15.0 | 0.00 | 0.00 | 0.00 | 86 | 1010.1 |
| 20260904065046 | 76 | 175 | 7.0 | 16.0 | 0.00 | 0.00 | 0.00 | 85 | 1010.1 |
| 20260904064603 | 76 | 161 | 10.0 | 16.0 | 0.00 | 0.00 | 0.00 | 85 | 1010.1 |
| 20260904064045 | 76 | 168 | 9.0 | 17.0 | 0.00 | 0.00 | 0.00 | 85 | 1010.0 |
| 20260904063547 | 76 | 175 | 9.0 | 16.0 | 0.00 | 0.00 | 0.00 | 84 | 1009.9 |
| 20260904063051 | 76 | 186 | 9.0 | 18.0 | 0.00 | 0.00 | 0.00 | 83 | 1010.0 |
| 20260904062542 | 76 | 153 | 11.0 | 18.0 | 0.00 | 0.00 | 0.00 | 82 | 1010.1 |
| 20260904062041 | 76 | 141 | 9.0 | 17.0 | 0.00 | 0.00 | 0.00 | 82 | 1010.1 |
| 20260904061540 | 77 | 169 | 6.0 | 16.0 | 0.00 | 0.00 | 0.00 | 81 | 1010.0 |
| 20260904061040 | 77 | 128 | 8.0 | 22.0 | 0.00 | 0.00 | 0.00 | 80 | 1010.0 |
| 20260904060540 | 77 | 180 | 12.0 | 21.0 | 0.00 | 0.00 | 0.00 | 78 | 1010.0 |
| 20260904060038 | 77 | 159 | 12.0 | 19.0 | 0.00 | 0.00 | 0.00 | 78 | 1010.0 |
| 20260904055537 | 77 | 133 | 11.0 | 20.0 | 0.00 | 0.00 | 0.00 | 76 | 1010.1 |
| 20260904055036 | 78 | 169 | 11.0 | 16.0 | 0.00 | 0.00 | 0.00 | 75 | 1010.1 |
| 20260904054537 | 78 | 141 | 9.0 | 19.0 | 0.00 | 0.00 | 0.00 | 74 | 1010.1 |
| 20260904054034 | 78 | 146 | 11.0 | 22.0 | 0.00 | 0.00 | 0.00 | 73 | 1010.2 |
| 20260904053535 | 78 | 175 | 11.0 | 22.0 | 0.00 | 0.00 | 0.00 | 72 | 1010.1 |
| 20260904053037 | 78 | 172 | 8.0 | 16.0 | 0.00 | 0.00 | 0.00 | 71 | 1010.2 |
| 20260904052531 | 79 | 184 | 9.0 | 13.0 | 0.00 | 0.00 | 0.00 | 71 | 1010.0 |
| 20260904052030 | 79 | 169 | 8.0 | 20.0 | 0.00 | 0.00 | 0.00 | 70 | 1009.9 |
| 20260904051529 | 79 | 186 | 10.0 | 20.0 | 0.00 | 0.00 | 0.00 | 70 | 1009.7 |
| 20260904051026 | 79 | 171 | 9.0 | 15.0 | 0.00 | 0.00 | 0.00 | 69 | 1009.7 |
| 20260904050527 | 80 | 205 | 10.0 | 15.0 | 0.00 | 0.00 | 0.00 | 69 | 1009.7 |
| 20260904050028 | 80 | 215 | 10.0 | 16.0 | 0.00 | 0.00 | 0.00 | 69 | 1009.6 |
| 20260904045524 | 80 | 186 | 9.0 | 17.0 | 0.00 | 0.00 | 0.00 | 69 | 1009.6 |
| 20260904045024 | 80 | 149 | 10.0 | 18.0 | 0.00 | 0.00 | 0.00 | 69 | 1009.6 |
| 20260904044524 | 81 | 190 | 11.0 | 18.0 | 0.00 | 0.00 | 0.00 | 69 | 1009.6 |
| 20260904044023 | 81 | 176 | 10.0 | 16.0 | 0.00 | 0.00 | 0.00 | 69 | 1009.7 |
| 20260904043523 | 81 | 162 | 7.0 | 16.0 | 0.00 | 0.00 | 0.00 | 69 | 1009.8 |
| 20260904043023 | 81 | 212 | 9.0 | 14.0 | 0.00 | 0.00 | 0.00 | 68 | 1009.7 |
| 20260904042523 | 81 | 189 | 9.0 | 15.0 | 0.00 | 0.00 | 0.00 | 68 | 1009.8 |
| 20260904042025 | 82 | 168 | 5.0 | 15.0 | 0.00 | 0.00 | 0.00 | 68 | 1009.7 |
| 20260904041525 | 82 | 198 | 8.0 | 14.0 | 0.00 | 0.00 | 0.00 | 68 | 1009.6 |
| 20260904041022 | 82 | 166 | 7.0 | 18.0 | 0.00 | 0.00 | 0.00 | 68 | 1009.6 |
| 20260904040526 | 82 | 136 | 8.0 | 18.0 | 0.00 | 0.00 | 0.00 | 68 | 1009.7 |
| 20260904040022 | 82 | 170 | 7.0 | 17.0 | 0.00 | 0.00 | 0.00 | 68 | 1009.7 |
| 20260904035522 | 82 | 164 | 9.0 | 17.0 | 0.00 | 0.00 | 0.00 | 68 | 1009.5 |
| 20260904035027 | 82 | 134 | 10.0 | 19.0 | 0.00 | 0.00 | 0.00 | 68 | 1009.5 |
| 20260904034520 | 83 | 198 | 11.0 | 20.0 | 0.00 | 0.00 | 0.00 | 68 | 1009.4 |
| 20260904034021 | 83 | 136 | 12.0 | 20.0 | 0.00 | 0.00 | 0.00 | 67 | 1009.6 |
| 20260904033521 | 83 | 153 | 7.0 | 19.0 | 0.00 | 0.00 | 0.00 | 67 | 1009.4 |
| 20260904033020 | 83 | 180 | 12.0 | 20.0 | 0.00 | 0.00 | 0.00 | 67 | 1009.3 |
| 20260904032523 | 83 | 157 | 13.0 | 20.0 | 0.00 | 0.00 | 0.00 | 60 | 1009.3 |
| 20260904032020 | 83 | 98 | 10.0 | 20.0 | 0.00 | 0.00 | 0.00 | 60 | 1009.3 |
| 20260904031621 | 84 | 130 | 13.0 | 20.0 | 0.00 | 0.00 | 0.00 | 60 | 1009.2 |
| 20260904031024 | 84 | 137 | 14.0 | 20.0 | 0.00 | 0.00 | 0.00 | 60 | 1009.1 |
| 20260904030523 | 84 | 134 | 10.0 | 19.0 | 0.00 | 0.00 | 0.00 | 60 | 1009.0 |
| 20260904030025 | 84 | 152 | 12.0 | 20.0 | 0.00 | 0.00 | 0.00 | 60 | 1008.9 |
| 20260904025519 | 85 | 163 | 12.0 | 20.0 | 0.00 | 0.00 | 0.00 | 60 | 1008.8 |
| 20260904025021 | 85 | 155 | 12.0 | 20.0 | 0.00 | 0.00 | 0.00 | 60 | 1008.6 |
| 20260904024522 | 85 | 111 | 11.0 | 20.0 | 0.00 | 0.00 | 0.00 | 60 | 1008.5 |
| 20260904024019 | 86 | 133 | 12.0 | 20.0 | 0.00 | 0.00 | 0.00 | 59 | 1008.6 |
| 20260904023517 | 87 | 161 | 10.0 | 21.0 | 0.00 | 0.00 | 0.00 | 57 | 1008.3 |
| 20260904023017 | 87 | 76 | 13.0 | 22.0 | 0.00 | 0.00 | 0.00 | 53 | 1008.2 |
| 20260904022517 | 87 | 148 | 12.0 | 17.0 | 0.00 | 0.00 | 0.00 | 53 | 1008.0 |
| 20260904022017 | 87 | 156 | 5.0 | 11.0 | 0.00 | 0.00 | 0.00 | 52 | 1007.8 |
| 20260904021529 | 87 | 130 | 7.0 | 15.0 | 0.00 | 0.00 | 0.00 | 52 | 1007.7 |
| 20260904021017 | 88 | 166 | 6.0 | 15.0 | 0.00 | 0.00 | 0.00 | 52 | 1007.6 |
| 20260904020517 | 88 | 136 | 7.0 | 11.0 | 0.00 | 0.00 | 0.00 | 52 | 1007.6 |
| 20260904020016 | 88 | 146 | 8.0 | 12.0 | 0.00 | 0.00 | 0.00 | 52 | 1007.5 |
| 20260904015515 | 88 | 169 | 7.0 | 12.0 | 0.00 | 0.00 | 0.00 | 52 | 1007.5 |
| 20260904015016 | 88 | 130 | 7.0 | 12.0 | 0.00 | 0.00 | 0.00 | 52 | 1007.5 |
| 20260904014515 | 88 | 133 | 6.0 | 11.0 | 0.00 | 0.00 | 0.00 | 51 | 1007.5 |
| 20260904014018 | 88 | 138 | 4.0 | 11.0 | 0.00 | 0.00 | 0.00 | 51 | 1007.5 |
| 20260904013514 | 88 | 129 | 3.0 | 8.0 | 0.00 | 0.00 | 0.00 | 50 | 1007.4 |
| 20260904013015 | 89 | 115 | 4.0 | 11.0 | 0.00 | 0.00 | 0.00 | 50 | 1007.3 |
| 20260904012515 | 89 | 144 | 5.0 | 11.0 | 0.00 | 0.00 | 0.00 | 49 | 1007.2 |
| 20260904012015 | 89 | 137 | 5.0 | 8.0 | 0.00 | 0.00 | 0.00 | 49 | 1007.2 |
| 20260904011514 | 89 | 127 | 4.0 | 10.0 | 0.00 | 0.00 | 0.00 | 49 | 1007.1 |
| 20260904011014 | 89 | 133 | 5.0 | 12.0 | 0.00 | 0.00 | 0.00 | 48 | 1007.1 |
| 20260904010516 | 90 | 139 | 5.0 | 11.0 | 0.00 | 0.00 | 0.00 | 48 | 1007.0 |
| 20260904010019 | 90 | 156 | 5.0 | 14.0 | 0.00 | 0.00 | 0.00 | 48 | 1007.0 |
| 20260904005512 | 90 | 140 | 8.0 | 14.0 | 0.00 | 0.00 | 0.00 | 48 | 1007.1 |
| 20260904005015 | 91 | 155 | 4.0 | 10.0 | 0.00 | 0.00 | 0.00 | 48 | 1007.0 |
| 20260904004514 | 91 | 146 | 4.0 | 10.0 | 0.00 | 0.00 | 0.00 | 47 | 1007.1 |
| 20260904004013 | 91 | 117 | 5.0 | 11.0 | 0.00 | 0.00 | 0.00 | 47 | 1007.0 |
| 20260904003512 | 92 | 184 | 4.0 | 12.0 | 0.00 | 0.00 | 0.00 | 47 | 1007.0 |
| 20260904003013 | 92 | 132 | 7.0 | 12.0 | 0.00 | 0.00 | 0.00 | 46 | 1007.1 |
| 20260904002512 | 92 | 138 | 6.0 | 13.0 | 0.00 | 0.00 | 0.00 | 46 | 1007.0 |
| 20260904002011 | 92 | 177 | 7.0 | 13.0 | 0.00 | 0.00 | 0.00 | 46 | 1006.9 |
| 20260904001512 | 93 | 159 | 7.0 | 15.0 | 0.00 | 0.00 | 0.00 | 46 | 1006.9 |
| 20260904001011 | 93 | 124 | 10.0 | 15.0 | 0.00 | 0.00 | 0.00 | 46 | 1006.9 |
| 20260904000513 | 93 | 103 | 8.0 | 15.0 | 0.00 | 0.00 | 0.00 | 46 | 1006.8 |
| 20260904000012 | 94 | 135 | 7.0 | 15.0 | 0.00 | 0.00 | 0.00 | 46 | 1006.8 |
| 20260903235510 | 94 | 114 | 9.0 | 15.0 | 0.00 | 0.00 | 0.00 | 46 | 1006.9 |
| 20260903235010 | 94 | 118 | 9.0 | 16.0 | 0.00 | 0.00 | 0.00 | 45 | 1006.7 |
| 20260903234610 | 95 | 123 | 5.0 | 16.0 | 0.00 | 0.00 | 0.00 | 45 | 1006.8 |
| 20260903234010 | 95 | 124 | 8.0 | 15.0 | 0.00 | 0.00 | 0.00 | 45 | 1006.8 |
| 20260903233512 | 96 | 160 | 8.0 | 15.0 | 0.00 | 0.00 | 0.00 | 44 | 1006.8 |
| 20260903233009 | 96 | 150 | 7.0 | 15.0 | 0.00 | 0.00 | 0.00 | 43 | 1006.8 |
| 20260903232509 | 96 | 135 | 7.0 | 15.0 | 0.00 | 0.00 | 0.00 | 42 | 1006.7 |
| 20260903232009 | 96 | 111 | 10.0 | 15.0 | 0.00 | 0.00 | 0.00 | 42 | 1006.6 |
| 20260903231509 | 96 | 89 | 8.0 | 13.0 | 0.00 | 0.00 | 0.00 | 42 | 1006.5 |
| 20260903231008 | 96 | 156 | 6.0 | 15.0 | 0.00 | 0.00 | 0.00 | 41 | 1006.6 |
| 20260903230509 | 97 | 134 | 8.0 | 15.0 | 0.00 | 0.00 | 0.00 | 40 | 1006.6 |
| 20260903230010 | 98 | 107 | 8.0 | 12.0 | 0.00 | 0.00 | 0.00 | 40 | 1006.6 |
| 20260903225510 | 97 | 117 | 2.0 | 11.0 | 0.00 | 0.00 | 0.00 | 41 | 1006.6 |
| 20260903225008 | 97 | 184 | 6.0 | 11.0 | 0.00 | 0.00 | 0.00 | 42 | 1006.6 |
| 20260903224507 | 96 | 176 | 5.0 | 11.0 | 0.00 | 0.00 | 0.00 | 41 | 1006.6 |
| 20260903224008 | 96 | 162 | 5.0 | 10.0 | 0.00 | 0.00 | 0.00 | 40 | 1006.6 |
| 20260903223507 | 96 | 165 | 6.0 | 12.0 | 0.00 | 0.00 | 0.00 | 39 | 1006.6 |
| 20260903223007 | 97 | 67 | 6.0 | 14.0 | 0.00 | 0.00 | 0.00 | 39 | 1006.6 |
| 20260903222506 | 99 | 136 | 10.0 | 13.0 | 0.00 | 0.00 | 0.00 | 37 | 1006.5 |
| 20260903222006 | 100 | 92 | 5.0 | 13.0 | 0.00 | 0.00 | 0.00 | 38 | 1006.4 |
| 20260903221509 | 100 | 203 | 6.0 | 16.0 | 0.00 | 0.00 | 0.00 | 39 | 1006.5 |
| 20260903221004 | 100 | 221 | 8.0 | 16.0 | 0.00 | 0.00 | 0.00 | 39 | 1006.6 |
| 20260903220505 | 99 | 199 | 8.0 | 16.0 | 0.00 | 0.00 | 0.00 | 39 | 1006.5 |
| 20260903220005 | 100 | 175 | 10.0 | 16.0 | 0.00 | 0.00 | 0.00 | 38 | 1006.6 |
| 20260903215503 | 100 | 170 | 7.0 | 14.0 | 0.00 | 0.00 | 0.00 | 38 | 1006.6 |
| 20260903215002 | 100 | 130 | 7.0 | 14.0 | 0.00 | 0.00 | 0.00 | 39 | 1006.6 |
| 20260903214501 | 100 | 171 | 5.0 | 15.0 | 0.00 | 0.00 | 0.00 | 39 | 1006.5 |
| 20260903214101 | 100 | 192 | 8.0 | 15.0 | 0.00 | 0.00 | 0.00 | 39 | 1006.6 |
| 20260903213600 | 100 | 111 | 6.0 | 11.0 | 0.00 | 0.00 | 0.00 | 40 | 1006.6 |
| 20260903213100 | 99 | 171 | 7.0 | 14.0 | 0.00 | 0.00 | 0.00 | 40 | 1006.6 |
| 20260903212557 | 99 | 149 | 8.0 | 14.0 | 0.00 | 0.00 | 0.00 | 39 | 1006.9 |
| 20260903212057 | 99 | 160 | 6.0 | 14.0 | 0.00 | 0.00 | 0.00 | 40 | 1006.8 |
| 20260903211555 | 100 | 189 | 6.0 | 15.0 | 0.00 | 0.00 | 0.00 | 39 | 1007.0 |
| 20260903211054 | 99 | 196 | 7.0 | 15.0 | 0.00 | 0.00 | 0.00 | 41 | 1007.1 |
| 20260903210557 | 99 | 205 | 7.0 | 15.0 | 0.00 | 0.00 | 0.00 | 40 | 1007.0 |
| 20260903210054 | 99 | 244 | 8.0 | 16.0 | 0.00 | 0.00 | 0.00 | 41 | 1007.0 |
| 20260903205550 | 99 | 171 | 6.0 | 10.0 | 0.00 | 0.00 | 0.00 | 41 | 1007.1 |
| 20260903205052 | 98 | 182 | 4.0 | 11.0 | 0.00 | 0.00 | 0.00 | 42 | 1007.1 |
| 20260903204552 | 98 | 259 | 3.0 | 11.0 | 0.00 | 0.00 | 0.00 | 42 | 1007.3 |
| 20260903204048 | 97 | 160 | 0.0 | 11.0 | 0.00 | 0.00 | 0.00 | 42 | 1007.4 |
| 20260903203547 | 96 | 166 | 6.0 | 11.0 | 0.00 | 0.00 | 0.00 | 43 | 1007.5 |
| 20260903203050 | 95 | 171 | 6.0 | 10.0 | 0.00 | 0.00 | 0.00 | 45 | 1007.6 |
| 20260903202547 | 93 | 263 | 2.0 | 12.0 | 0.00 | 0.00 | 0.00 | 45 | 1007.6 |
| 20260903202044 | 94 | 235 | 4.0 | 12.0 | 0.00 | 0.00 | 0.00 | 44 | 1007.8 |
| 20260903201544 | 94 | 137 | 2.0 | 8.0 | 0.00 | 0.00 | 0.00 | 45 | 1007.7 |
| 20260903201044 | 94 | 213 | 3.0 | 7.0 | 0.00 | 0.00 | 0.00 | 44 | 1007.8 |
| 20260903200543 | 95 | 125 | 5.0 | 9.0 | 0.00 | 0.00 | 0.00 | 45 | 1007.9 |
| 20260903200048 | 96 | 225 | 5.0 | 12.0 | 0.00 | 0.00 | 0.00 | 44 | 1007.9 |
| 20260903195544 | 97 | 187 | 8.0 | 14.0 | 0.00 | 0.00 | 0.00 | 43 | 1008.0 |
| 20260903195041 | 98 | 159 | 7.0 | 14.0 | 0.00 | 0.00 | 0.00 | 43 | 1008.0 |
| 20260903194543 | 97 | 150 | 7.0 | 13.0 | 0.00 | 0.00 | 0.00 | 44 | 1008.0 |
| 20260903194044 | 97 | 161 | 6.0 | 17.0 | 0.00 | 0.00 | 0.00 | 44 | 1008.1 |
| 20260903193538 | 97 | 151 | 5.0 | 17.0 | 0.00 | 0.00 | 0.00 | 45 | 1008.1 |
| 20260903193038 | 97 | 88 | 5.0 | 12.0 | 0.00 | 0.00 | 0.00 | 44 | 1008.2 |
| 20260903192537 | 97 | 94 | 5.0 | 14.0 | 0.00 | 0.00 | 0.00 | 44 | 1008.4 |
| 20260903192038 | 97 | 142 | 9.0 | 15.0 | 0.00 | 0.00 | 0.00 | 45 | 1008.4 |
| 20260903191538 | 97 | 201 | 3.0 | 13.0 | 0.00 | 0.00 | 0.00 | 45 | 1008.4 |
| 20260903191035 | 96 | 161 | 7.0 | 13.0 | 0.00 | 0.00 | 0.00 | 47 | 1008.6 |
| 20260903190536 | 96 | 165 | 6.0 | 14.0 | 0.00 | 0.00 | 0.00 | 47 | 1008.6 |
| 20260903190034 | 97 | 180 | 6.0 | 14.0 | 0.00 | 0.00 | 0.00 | 47 | 1008.7 |
| 20260903185532 | 96 | 155 | 4.0 | 10.0 | 0.00 | 0.00 | 0.00 | 48 | 1008.8 |
| 20260903185032 | 95 | 194 | 5.0 | 10.0 | 0.00 | 0.00 | 0.00 | 48 | 1008.9 |
| 20260903184529 | 95 | 228 | 1.0 | 12.0 | 0.00 | 0.00 | 0.00 | 50 | 1009.0 |
| 20260903184028 | 94 | 247 | 6.0 | 15.0 | 0.00 | 0.00 | 0.00 | 50 | 1009.1 |
| 20260903183526 | 95 | 229 | 9.0 | 12.0 | 0.00 | 0.00 | 0.00 | 49 | 1009.2 |
| 20260903183025 | 94 | 161 | 5.0 | 12.0 | 0.00 | 0.00 | 0.00 | 50 | 1009.3 |
| 20260903182524 | 94 | 226 | 7.0 | 14.0 | 0.00 | 0.00 | 0.00 | 51 | 1009.4 |
| 20260903182024 | 93 | 251 | 9.0 | 14.0 | 0.00 | 0.00 | 0.00 | 53 | 1009.6 |
| 20260903181521 | 93 | 219 | 8.0 | 12.0 | 0.00 | 0.00 | 0.00 | 52 | 1009.7 |
| 20260903181020 | 93 | 202 | 8.0 | 14.0 | 0.00 | 0.00 | 0.00 | 49 | 1009.8 |
| 20260903180524 | 93 | 240 | 9.0 | 14.0 | 0.00 | 0.00 | 0.00 | 51 | 1009.9 |
| 20260903180031 | 93 | 182 | 6.0 | 15.0 | 0.00 | 0.00 | 0.00 | 53 | 1010.0 |
| 20260903175517 | 92 | 251 | 6.0 | 15.0 | 0.00 | 0.00 | 0.00 | 53 | 1010.1 |
| 20260903175018 | 91 | 243 | 9.0 | 14.0 | 0.00 | 0.00 | 0.00 | 52 | 1010.1 |
| 20260903174515 | 91 | 236 | 9.0 | 15.0 | 0.00 | 0.00 | 0.00 | 55 | 1010.1 |
| 20260903174015 | 91 | 259 | 10.0 | 15.0 | 0.00 | 0.00 | 0.00 | 54 | 1010.1 |
| 20260903173514 | 91 | 227 | 10.0 | 12.0 | 0.00 | 0.00 | 0.00 | 56 | 1010.2 |
| 20260903173015 | 91 | 183 | 7.0 | 15.0 | 0.00 | 0.00 | 0.00 | 56 | 1010.3 |
| 20260903172514 | 91 | 147 | 6.0 | 15.0 | 0.00 | 0.00 | 0.00 | 57 | 1010.4 |
| 20260903172013 | 91 | 186 | 4.0 | 9.0 | 0.00 | 0.00 | 0.00 | 60 | 1010.4 |
| 20260903171512 | 90 | 232 | 5.0 | 11.0 | 0.00 | 0.00 | 0.00 | 62 | 1010.5 |
| 20260903171011 | 89 | 229 | 6.0 | 15.0 | 0.00 | 0.00 | 0.00 | 62 | 1010.5 |
| 20260903170511 | 89 | 215 | 5.0 | 15.0 | 0.00 | 0.00 | 0.00 | 65 | 1010.5 |
| 20260903170009 | 89 | 213 | 7.0 | 14.0 | 0.00 | 0.00 | 0.00 | 64 | 1010.6 |
| 20260903165508 | 89 | 218 | 8.0 | 14.0 | 0.00 | 0.00 | 0.00 | 64 | 1010.6 |
| 20260903165011 | 89 | 260 | 4.0 | 10.0 | 0.00 | 0.00 | 0.00 | 65 | 1010.6 |
| 20260903164507 | 88 | 213 | 5.0 | 10.0 | 0.00 | 0.00 | 0.00 | 65 | 1010.7 |
| 20260903164008 | 88 | 211 | 3.0 | 11.0 | 0.00 | 0.00 | 0.00 | 65 | 1010.7 |
| 20260903163503 | 87 | 178 | 5.0 | 11.0 | 0.00 | 0.00 | 0.00 | 66 | 1010.8 |
| 20260903163003 | 87 | 200 | 6.0 | 13.0 | 0.00 | 0.00 | 0.00 | 66 | 1010.8 |
| 20260903162502 | 87 | 187 | 7.0 | 12.0 | 0.00 | 0.00 | 0.00 | 68 | 1010.9 |
| 20260903162003 | 86 | 177 | 6.0 | 11.0 | 0.00 | 0.00 | 0.00 | 69 | 1010.8 |
| 20260903161600 | 86 | 200 | 5.0 | 11.0 | 0.00 | 0.00 | 0.00 | 65 | 1010.8 |
| 20260903161058 | 85 | 183 | 5.0 | 11.0 | 0.00 | 0.00 | 0.00 | 70 | 1010.8 |
| 20260903160557 | 85 | 175 | 6.0 | 10.0 | 0.00 | 0.00 | 0.00 | 73 | 1010.8 |
| 20260903160104 | 84 | 175 | 5.0 | 14.0 | 0.00 | 0.00 | 0.00 | 75 | 1010.8 |
| 20260903155555 | 84 | 221 | 7.0 | 14.0 | 0.00 | 0.00 | 0.00 | 74 | 1010.7 |
| 20260903155055 | 84 | 225 | 8.0 | 13.0 | 0.00 | 0.00 | 0.00 | 75 | 1010.6 |
| 20260903154553 | 83 | 221 | 7.0 | 13.0 | 0.00 | 0.00 | 0.00 | 75 | 1010.6 |
| 20260903154052 | 83 | 179 | 6.0 | 12.0 | 0.00 | 0.00 | 0.00 | 77 | 1010.6 |
| 20260903153552 | 83 | 233 | 9.0 | 13.0 | 0.00 | 0.00 | 0.00 | 77 | 1010.6 |
| 20260903153052 | 82 | 215 | 5.0 | 12.0 | 0.00 | 0.00 | 0.00 | 79 | 1010.6 |
| 20260903152552 | 82 | 221 | 7.0 | 12.0 | 0.00 | 0.00 | 0.00 | 80 | 1010.6 |
| 20260903152051 | 81 | 235 | 5.0 | 12.0 | 0.00 | 0.00 | 0.00 | 80 | 1010.7 |
| 20260903151554 | 81 | 194 | 6.0 | 14.0 | 0.00 | 0.00 | 0.00 | 80 | 1010.7 |
| 20260903151052 | 81 | 202 | 6.0 | 14.0 | 0.00 | 0.00 | 0.00 | 82 | 1010.7 |
| 20260903150550 | 80 | 217 | 8.0 | 14.0 | 0.00 | 0.00 | 0.00 | 83 | 1010.6 |
| 20260903150054 | 80 | 169 | 8.0 | 14.0 | 0.00 | 0.00 | 0.00 | 84 | 1010.6 |
| 20260903145553 | 79 | 184 | 8.0 | 13.0 | 0.00 | 0.00 | 0.00 | 85 | 1010.6 |
| 20260903145050 | 80 | 211 | 9.0 | 13.0 | 0.00 | 0.00 | 0.00 | 84 | 1010.6 |
| 20260903144554 | 80 | 217 | 6.0 | 10.0 | 0.00 | 0.00 | 0.00 | 85 | 1010.6 |
| 20260903144050 | 79 | 216 | 7.0 | 10.0 | 0.00 | 0.00 | 0.00 | 85 | 1010.7 |
| 20260903143549 | 79 | 196 | 6.0 | 10.0 | 0.00 | 0.00 | 0.00 | 86 | 1010.7 |
| 20260903143048 | 79 | 165 | 5.0 | 10.0 | 0.00 | 0.00 | 0.00 | 87 | 1010.7 |
| 20260903142548 | 78 | 182 | 5.0 | 13.0 | 0.00 | 0.00 | 0.00 | 88 | 1010.7 |
| 20260903142048 | 78 | 214 | 6.0 | 13.0 | 0.00 | 0.00 | 0.00 | 88 | 1010.7 |
| 20260903141548 | 78 | 205 | 7.0 | 13.0 | 0.00 | 0.00 | 0.00 | 88 | 1010.7 |
| 20260903141047 | 78 | 207 | 7.0 | 12.0 | 0.00 | 0.00 | 0.00 | 89 | 1010.7 |
| 20260903140547 | 77 | 217 | 7.0 | 10.0 | 0.00 | 0.00 | 0.00 | 89 | 1010.7 |
| 20260903140047 | 77 | 178 | 7.0 | 10.0 | 0.00 | 0.00 | 0.00 | 90 | 1010.7 |
| 20260903135546 | 77 | 177 | 4.0 | 10.0 | 0.00 | 0.00 | 0.00 | 91 | 1010.8 |
| 20260903135046 | 76 | 239 | 6.0 | 12.0 | 0.00 | 0.00 | 0.00 | 91 | 1010.7 |
| 20260903134546 | 76 | 203 | 7.0 | 12.0 | 0.00 | 0.00 | 0.00 | 91 | 1010.8 |
| 20260903134045 | 76 | 198 | 6.0 | 12.0 | 0.00 | 0.00 | 0.00 | 92 | 1010.8 |
| 20260903133545 | 76 | 215 | 8.0 | 13.0 | 0.00 | 0.00 | 0.00 | 92 | 1010.7 |
| 20260903133046 | 76 | 201 | 8.0 | 14.0 | 0.00 | 0.00 | 0.00 | 93 | 1010.6 |
| 20260903132547 | 76 | 209 | 8.0 | 14.0 | 0.00 | 0.00 | 0.00 | 93 | 1010.6 |
| 20260903132044 | 75 | 219 | 7.0 | 13.0 | 0.00 | 0.00 | 0.00 | 93 | 1010.6 |